Weather reports worldwide

Advertisment
Catania/Sigonella, Italy (16459): temperature & dewpoint: 14.06.2018 11:00:00 - 20.06.2018 11:00:00 (CEST)Catania/Sigonella, Italy (16459): wind speed: 14.06.2018 11:00:00 - 20.06.2018 11:00:00 (CEST)Catania/Sigonella, Italy (16459): wind direction: 14.06.2018 11:00:00 - 20.06.2018 11:00:00 (CEST)Catania/Sigonella, Italy (16459): reduced air pressure: 14.06.2018 11:00:00 - 20.06.2018 11:00:00 (CEST)Catania/Sigonella, Italy (16459): visibility: 14.06.2018 11:00:00 - 20.06.2018 11:00:00 (CEST)
Date & Time tt [°C] td [°C] ff [km/h] ff [kn] dd ppp [hPa] vv [km]
20.06.2018 11:00:00 27,4 21,4 26 14 E 1017,3 12
20.06.2018 10:00:00 28,0 22,0 16 9 ENE - 10
20.06.2018 09:00:00 27,0 24,0 13 7 ENE - 10
20.06.2018 08:00:00 22,4 22,4 8 4 W 1017,4 12
20.06.2018 07:00:00 20,0 20,0 8 4 W - 10
20.06.2018 06:00:00 19,0 19,0 4 2 SSW - 10
20.06.2018 05:00:00 19,0 19,0 5 3 SW 1016,3 10
20.06.2018 04:00:00 19,0 19,0 5 3 WSW - 10
20.06.2018 03:00:00 21,0 21,0 8 4 WSW - 10
20.06.2018 02:00:00 21,0 21,0 9 5 WSW 1016,0 10
20.06.2018 01:00:00 22,0 22,0 4 2 W - 10
20.06.2018 00:00:00 23,0 23,0 11 6 W - 10
19.06.2018 23:00:00 23,0 22,7 8 4 W 1015,5 10
19.06.2018 22:00:00 24,0 22,0 4 2 WNW - 10
19.06.2018 21:00:00 25,0 23,0 5 3 WSW - 10
19.06.2018 20:00:00 25,6 22,1 11 6 W 1015,0 15
19.06.2018 19:00:00 26,0 23,0 15 8 W - 10
19.06.2018 18:00:00 26,0 22,0 16 9 WNW - 10
19.06.2018 17:00:00 26,0 21,2 13 7 W 1014,6 16
19.06.2018 16:00:00 28,0 20,0 13 7 ENE - 10
19.06.2018 15:00:00 29,0 19,0 26 14 ENE - 10
19.06.2018 14:00:00 31,2 18,9 26 14 E 1013,4 15
19.06.2018 13:00:00 31,0 18,0 24 13 E - 10
19.06.2018 12:00:00 32,0 19,0 15 8 E - 10
19.06.2018 11:00:00 29,8 18,0 8 4 S 1014,0 15
19.06.2018 10:00:00 28,0 19,0 4 2 NNE - 10
19.06.2018 09:00:00 25,0 18,0 9 5 WNW - 10
19.06.2018 08:00:00 22,2 19,0 11 6 W 1013,8 10
19.06.2018 07:00:00 20,0 20,0 9 5 W - 10
19.06.2018 06:00:00 19,0 19,0 8 4 W - 10
19.06.2018 05:00:00 19,8 19,8 9 5 W 1012,9 10
19.06.2018 04:00:00 20,0 20,0 8 4 W - 10
19.06.2018 03:00:00 20,0 20,0 9 5 WNW - 10
19.06.2018 02:00:00 20,2 20,2 11 6 WSW 1012,8 10
19.06.2018 01:00:00 22,0 22,0 5 3 N - 10
19.06.2018 00:00:00 22,0 22,0 5 3 NNW - 10
18.06.2018 23:00:00 22,8 22,8 4 2 ENE 1013,2 10
18.06.2018 22:00:00 23,0 23,0 13 7 SE - 10
18.06.2018 21:00:00 24,0 20,0 16 9 E - 10
18.06.2018 20:00:00 26,0 18,9 18 10 E 1011,6 12
18.06.2018 19:00:00 27,0 18,0 18 10 E - 10
18.06.2018 18:00:00 27,0 19,0 18 10 E - 10
18.06.2018 17:00:00 27,6 19,1 21 11 ENE 1012,3 10
18.06.2018 16:00:00 29,0 17,0 22 12 ENE - 10
18.06.2018 15:00:00 29,0 19,0 34 18 E - 10
18.06.2018 14:00:00 29,4 19,4 31 17 E 1012,1 12
18.06.2018 13:00:00 - - - - - - -
18.06.2018 12:00:00 - - - - - - -
18.06.2018 11:00:00 29,8 16,6 9 5 SSE 1012,1 12
18.06.2018 10:00:00 26,0 18,0 8 4 SW - 10
18.06.2018 09:00:00 25,0 19,0 5 3 WNW - 10
18.06.2018 08:00:00 22,0 17,6 5 3 W 1012,3 10
18.06.2018 07:00:00 19,0 18,0 4 2 WSW - 10
18.06.2018 06:00:00 18,0 17,0 5 3 W - 10
18.06.2018 05:00:00 19,0 17,5 11 6 W 1012,4 10
18.06.2018 04:00:00 18,0 17,0 8 4 W - 10
18.06.2018 03:00:00 19,0 18,0 13 7 WSW - 10
18.06.2018 02:00:00 21,0 19,3 11 6 W 1012,6 10
18.06.2018 01:00:00 21,0 21,0 9 5 W - 10
18.06.2018 00:00:00 21,0 21,0 9 5 W - 10
17.06.2018 23:00:00 23,0 22,8 2 1 W 1013,3 10
17.06.2018 22:00:00 23,0 23,0 9 5 N - 10
17.06.2018 21:00:00 24,0 23,0 9 5 ENE - 10
17.06.2018 20:00:00 25,4 22,7 15 8 E 1012,3 10
17.06.2018 19:00:00 25,0 22,0 16 9 E - 10
17.06.2018 18:00:00 27,0 21,0 22 12 E - 10
17.06.2018 17:00:00 27,2 16,8 28 15 E 1012,6 10
17.06.2018 16:00:00 28,0 19,0 29 16 ENE - 10
17.06.2018 15:00:00 29,0 19,0 37 20 N - 10
17.06.2018 14:00:00 29,4 16,6 22 12 E 1012,4 10
17.06.2018 13:00:00 30,0 18,0 31 17 E - 10
17.06.2018 12:00:00 31,0 16,0 22 12 E - 10
17.06.2018 11:00:00 29,8 16,6 9 5 NE 1011,8 10
17.06.2018 10:00:00 27,0 18,0 5 3 W - 10
17.06.2018 09:00:00 27,0 18,0 13 7 WSW - 10
17.06.2018 08:00:00 21,8 17,6 11 6 W 1012,3 14
17.06.2018 07:00:00 18,0 18,0 5 3 WSW - 10
17.06.2018 06:00:00 18,0 18,0 8 4 W - 10
17.06.2018 05:00:00 17,0 16,7 8 4 SW 1011,7 10
17.06.2018 04:00:00 17,0 17,0 5 3 S - 10
17.06.2018 03:00:00 20,0 18,0 5 3 WNW - 10
17.06.2018 02:00:00 20,0 18,0 8 4 W 1012,0 10
17.06.2018 01:00:00 21,0 17,0 9 5 W - 10
17.06.2018 00:00:00 21,0 17,0 16 9 W - 10
16.06.2018 23:00:00 22,0 18,4 9 5 W 1011,4 10
16.06.2018 22:00:00 24,0 20,0 4 2 WNW - 10
16.06.2018 21:00:00 25,0 19,0 13 7 E - 10
16.06.2018 20:00:00 26,4 19,0 11 6 E 1009,7 10
16.06.2018 19:00:00 27,0 19,0 11 6 E - 10
16.06.2018 18:00:00 27,0 21,0 18 10 E - 10
16.06.2018 17:00:00 27,2 21,7 24 13 E 1009,4 10
16.06.2018 16:00:00 27,0 22,0 29 16 E - 10
16.06.2018 15:00:00 27,0 22,0 31 17 E - 10
16.06.2018 14:00:00 26,0 20,8 35 19 ENE 1009,3 10
16.06.2018 13:00:00 31,0 16,0 9 5 N - 10
16.06.2018 12:00:00 30,0 19,0 9 5 WSW - 10
16.06.2018 11:00:00 28,0 19,5 9 5 NW 1009,3 10
16.06.2018 10:00:00 26,0 21,0 8 4 NNW - 10
16.06.2018 09:00:00 24,0 20,0 8 4 NW - 10
16.06.2018 08:00:00 22,0 19,4 8 4 NW 1010,0 18
16.06.2018 07:00:00 19,0 19,0 4 2 NW - 10
16.06.2018 06:00:00 18,0 18,0 11 6 W - 10
16.06.2018 05:00:00 18,2 18,2 11 6 W 1009,3 15
16.06.2018 04:00:00 19,0 19,0 13 7 W - 10
16.06.2018 03:00:00 19,0 19,0 5 3 W - 10
16.06.2018 02:00:00 18,8 18,8 5 3 N 1009,6 15
16.06.2018 01:00:00 19,0 19,0 4 2 WSW - 10
16.06.2018 00:00:00 19,0 19,0 13 7 WSW - 10
15.06.2018 23:00:00 20,0 20,0 11 6 W 1009,7 10
15.06.2018 22:00:00 20,0 20,0 13 7 NW - 9
15.06.2018 21:00:00 22,0 21,0 13 7 WNW - 10
15.06.2018 20:00:00 23,6 19,1 24 13 WNW 1008,3 10
15.06.2018 19:00:00 24,0 19,0 21 11 W - 10
15.06.2018 18:00:00 25,0 19,0 26 14 WNW - 10
15.06.2018 17:00:00 23,2 18,1 22 12 W 1008,2 10
15.06.2018 16:00:00 25,0 20,0 21 11 WNW - 10
15.06.2018 15:00:00 25,0 21,0 21 11 NW - 8
15.06.2018 14:00:00 23,4 23,4 9 5 E 1007,6 7
15.06.2018 13:00:00 23,0 16,0 24 13 ENE - 8
15.06.2018 12:00:00 28,0 18,0 15 8 WNW - 10
15.06.2018 11:00:00 26,8 17,6 21 11 WSW 1006,1 10
15.06.2018 10:00:00 25,0 19,0 22 12 W - 10
15.06.2018 09:00:00 23,0 19,0 22 12 WSW - 10
15.06.2018 08:00:00 23,2 23,2 4 2 N 1006,3 10
15.06.2018 07:00:00 21,0 21,0 4 2 S - 10
15.06.2018 06:00:00 19,0 19,0 4 2 E - 10
15.06.2018 05:00:00 19,8 19,8 13 7 WNW 1006,1 10
15.06.2018 04:00:00 19,0 19,0 16 9 W - 10
15.06.2018 03:00:00 20,0 20,0 22 12 WSW - 10
15.06.2018 02:00:00 20,0 20,0 22 12 WSW 1006,4 10
15.06.2018 01:00:00 - - - - - - -
15.06.2018 00:00:00 20,0 20,0 24 13 W - 10
14.06.2018 23:00:00 20,2 20,2 16 9 WSW 1006,7 10
14.06.2018 22:00:00 20,0 20,0 13 7 WSW - 10
14.06.2018 21:00:00 20,0 20,0 5 3 SSE - 10
14.06.2018 20:00:00 20,4 20,4 11 6 E 1006,0 10
14.06.2018 19:00:00 21,0 21,0 15 8 E - 10
14.06.2018 18:00:00 25,0 22,0 8 4 ENE - 10
14.06.2018 17:00:00 25,0 20,7 13 7 NNW 1004,8 16
14.06.2018 16:00:00 28,0 18,0 31 17 WSW - 10
14.06.2018 15:00:00 29,0 17,0 28 15 W - 10
14.06.2018 14:00:00 28,6 19,0 29 16 W 1005,7 16
14.06.2018 13:00:00 27,0 19,0 28 15 WSW - 10
14.06.2018 12:00:00 26,0 17,0 35 19 W - 10
14.06.2018 11:00:00 28,4 17,9 34 18 W 1006,5 16

tt = temperature
td = dewpoint
ff = wind speed
dd = wind direction
ppp = reduced air pressure
vv = visibility

Next stations